Regional Weather Roundup
Issued by NWS

Home | Current Version | Previous Version | Graphics & Text | Print | Product List | Glossary Off
Versions: 1 2 3 4 5 6 7 8 9 10 11 12 13 14 15 16 17 18 19 20 21 22 23 24 25 26 27 28 29 30 31 32 33 34 35 36 37 38 39 40 41 42 43 44 45 46 47 48 49 50

000
ASUS43 KMKX 232020
RWRWI

WISCONSIN REGIONAL WEATHER ROUNDUP
NATIONAL WEATHER SERVICE MILWAUKEE/SULLIVAN WI
200 PM CST FRI FEB 23 2018

NOTE: "FAIR" INDICATES FEW OR NO CLOUDS BELOW 12,000 FEET WITH NO
SIGNIFICANT WEATHER AND/OR OBSTRUCTIONS TO VISIBILITY.

WIZ001-002-006>008-014>016-023>028-232100-
NORTHWEST WISCONSIN

CITY           SKY/WX    TMP DP  RH WIND       PRES   REMARKS
SUPERIOR ARPT  CLOUDY    32  23  69 W12       30.12R WCI  23
ASHLAND        CLOUDY    31  22  69 W15       30.09R WCI  20
HAYWARD        CLOUDY    30  23  75 SW7       30.10R WCI  23
SIREN          CLOUDY    32  21  65 W10       30.14R WCI  24
CUMBERLAND     CLOUDY    30  21  69 W14       30.12S WCI  20
RICE LAKE      CLOUDY    30  23  75 W8        30.15S WCI  22
CHETEK         CLOUDY    30  23  74 W8        30.13F WCI  23
LADYSMITH      CLOUDY    31  24  75 W12G17    30.12S WCI  22
EAU CLAIRE     CLOUDY    28  23  81 W14       30.16R WCI  17
MENOMONIE      CLOUDY    31  22  71 W12       30.17S WCI  21
NEW RICHMOND   CLOUDY    30  20  66 W15       30.16S WCI  19
OSCEOLA        CLOUDY    32  22  66 W12       30.20R WCI  23
$$

WIZ003>005-009-010-017-018-232100-
NORTH CENTRAL WISCONSIN

CITY           SKY/WX    TMP DP  RH WIND       PRES   REMARKS
MANITOWISH WTR CLOUDY    28  26  93 W10       30.03R WCI  19
ARBOR VITAE    CLOUDY    32  29  88 W10       30.03R WCI  23
WOODRUFF       CLOUDY    32  29  88 W10       30.03R WCI  23
RHINELANDER    CLOUDY    30  27  88 W15G23    30.03R WCI  19
EAGLE RIVER    CLOUDY    29  27  91 W13G18    30.01R WCI  19
LAND O LAKES   CLOUDY    30  26  86 W7G16     30.01R WCI  23
PHILLIPS       CLOUDY    28  24  87 W6        30.06R WCI  21
TOMAHAWK       CLOUDY    28  26  89 W10G17    30.06R WCI  19
MEDFORD        CLOUDY    27  25  90 W14       30.08R FOG     WCI  16
MERRILL        CLOUDY    30  28  90 W13G20    30.07S WCI  20
$$

WIZ029-030-035-036-043>047-232100-
CENTRAL WISCONSIN

CITY           SKY/WX    TMP DP  RH WIND       PRES   REMARKS
WAUSAU         CLOUDY    31  26  82 W16G22    30.06R WCI  20
MOSINEE        CLOUDY    30  28  93 W15G26    30.08R WCI  19
MARSHFIELD     CLOUDY    30  25  81 W18       30.09R WCI  18
STEVENS POINT  CLOUDY    31  26  80 W9G21     30.10R WCI  23
WAUPACA        CLOUDY    37  31  78 W13       30.09R WCI  28
WAUTOMA        CLOUDY    34  28  79 W17G23    30.12R WCI  23
WISC RAPIDS    CLOUDY    32  25  75 W15G25    30.12R WCI  22
CAMP DOUGLAS   CLOUDY    34  28  80 W13G20    30.15R WCI  25
$$

WIZ011>013-019>022-031-037>040-048>050-232100-
NORTHEAST WISCONSIN

CITY           SKY/WX    TMP DP  RH WIND       PRES   REMARKS
ANTIGO         CLOUDY    31  27  86 W20G28    30.03R WCI  19
SHAWANO        CLOUDY    37  31  76 W12G21    30.06R WCI  30
OCONTO         CLOUDY    37  32  81 W15       30.04R WCI  28
STURGEON BAY   CLOUDY    37  31  78 W16       30.04R WCI  28
GREEN BAY      CLOUDY    37  29  72 W18G25    30.06R WCI  27
MANITOWOC      CLOUDY    38  32  79 W16G25    30.07R WCI  29
APPLETON       CLOUDY    36  28  75 W18G25    30.06R WCI  25
CLINTONVILLE   CLOUDY    35  28  76 W14G20    30.08R WCI  26
OSHKOSH        CLOUDY    37  31  78 W8        30.08S WCI  31
$$

WIZ032>034-041-042-053>061-232100-
SOUTHWEST WISCONSIN

CITY           SKY/WX    TMP DP  RH WIND       PRES   REMARKS
LA CROSSE      FAIR      34  25  69 W14       30.20R WCI  25
SPARTA         CLOUDY    33  26  78 W12G17    30.18R WCI  24
VIROQUA        CLOUDY    33  30  89 W13       30.17R WCI  23
BOSCOBEL       FAIR      39  27  62 W10G21    30.20R WCI  32
PRAIRIE DU CHI FAIR      34  25  69 W13       30.22S WCI  25
PLATTEVILLE    CLOUDY    34  31  88 SW14      30.20R WCI  24
$$

WIZ056-057-062-063-064-067-068-232100-
SOUTH CENTRAL WISCONSIN

CITY           SKY/WX    TMP DP  RH WIND       PRES   REMARKS
REEDSBURG      CLOUDY    37  28  72 W16       30.15R WCI  27
BARABOO/DELLS  CLOUDY    35  28  76 W10G17    30.14R WCI  27
LONE ROCK      CLOUDY    38  29  70 W12       30.18R WCI  30
MINERAL POINT  CLOUDY    36  32  87 W16       30.17R WCI  26
MADISON        CLOUDY    37  30  75 W9G17     30.16R WCI  30
MIDDLETON      CLOUDY    38  32  77 W10       30.15R WCI  32
WATERTOWN      CLOUDY    36  33  89 W12       30.13R WCI  28
MONROE         CLOUDY    36  32  87 W18G26    30.15F WCI  25
JANESVILLE     CLOUDY    39  34  81 W14       30.15R WCI  31
$$

WIZ051-052-058>065-066-070>072-232100-
SOUTHEAST WISCONSIN

CITY           SKY/WX    TMP DP  RH WIND       PRES   REMARKS
MILWAUKEE      CLOUDY    39  34  82 W14       30.13R WCI  31
WAUKESHA       CLOUDY    36  32  87 W12G18    30.13S WCI  27
MILWAUKEE/TIMM CLOUDY    39  32  75 W12       30.12S WCI  32
RACINE         CLOUDY    39  33  79 W9        30.15S WCI  33
BURLINGTON     CLOUDY    37  32  81 W12G17    30.14S WCI  29
KENOSHA        CLOUDY    39  34  82 W13       30.15R WCI  31
FOND DU LAC    CLOUDY    38  31  76 W9G21     30.10R WCI  31
SHEBOYGAN      CLOUDY    37  34  89 W13       30.09R WCI  29
WEST BEND      CLOUDY    36  34  93 W13       30.10R WCI  27
JUNEAU         CLOUDY    35  32  88 W15       30.13R WCI  25
$$

LSZ147-162-232100-
LAKE SUPERIOR

STATION/POSITION TIME  TEMP    WIND        PRES    WAVE
                       AIR SEA DIR/SP/G            HT/PER
                 (UTC) (F)     (DEG/KT/KT) (MB)    (FT/S)
DEVILS ISLAND    2000   30     240/ 19/ 24 1018.8R
SAXON HARBOR     1930   33     240/  8/ 12 1017.9R
$$

LMZ867-665-643>646-232100-
LAKE MICHIGAN

STATION/POSITION TIME  TEMP    WIND        PRES    WAVE
                       AIR SEA DIR/SP/G            HT/PER
                 (UTC) (F)     (DEG/KT/KT) (MB)    (FT/S)
NORTHPORT PIER   1940   38                 1015.9R
KEWAUNEE LAKESHO 1954   38     260/ 10/ 16 1016.9R
SHEBOYGAN LAKESH 2000   38     270/ 14/ 16 1019.5R
PORT WASHINGTON  1940   39     280/  9/ 14 1020.3S
KENOSHA   LAKESH 2000   38     260/ 12/ 15 1021.0
$$

TC  - TEMPERATURE IN CELSIUS
VSB - VISIBILITY IN STATUTE MILES
WCI - WIND CHILL INDEX
HX  - HEAT INDEX





USA.gov is the U.S. government's official web portal to all federal, state and local government web resources and services.